Terug naar catalogus

SL-19 DEB

ActiefUNKNOWN
NORAD 23487·DEBRIS·🇷🇺 Russia

Gelanceerd Dec 26, 1994 vanaf Baikonur Cosmodrome

Loading…

Volgende Passages (komende 24 uur)

TLE

VersSource: Space-Track

Epoch: Sep 14, 2026, 02:42 UTC

1 23487U 94085K   26257.11311527  .00000017  00000-0  16390-2 0  9992
2 23487  64.9376 135.2008 0167668 166.4376 347.6010 11.30419591309004

Volg SL-19 DEB in realtime met AllMySat

Download on the App Store